Date String (YYYY-MM-DD hh:mm:ss) UTC,Instrument flags,Ambient pressure (hPa),Sample flow (lpm),Bypass flow (lpm),Sample temperature (°C),Ambient temperature (°C),ASC tube jacket temperature (°C),LED temperature (°C),Box temperature (°C),Sample RH (%),Span deviation,Mass concentration (μg/m³),Mass concentration (μg/m³),Mass concentration (μg/m³)
DateTimeUTC,F1_M11,P_M11,Q1_M11,Q2_M11,T1_M11,T2_M11,T3_M11,T4_M11,T5_M11,U1_M11,ZSPAN_M11,X0_M11,X2_M11,X1_M11
2021-10-14 16:00:00,,0823.7,4.98,0.00,23.9,23.0,00.0,32.9,25.7,16.5,0000.0,0010.53,0004.42,0003.89
2021-10-14 16:01:00,,0823.7,5.01,0.00,23.9,23.0,00.0,32.9,25.7,16.3,0000.0,0010.17,0004.45,0003.90
2021-10-14 16:02:00,,0823.7,5.01,0.00,23.9,23.0,00.0,32.9,25.7,16.4,0000.0,0009.91,0004.47,0003.92
2021-10-14 16:03:00,,0823.6,4.99,0.00,23.9,23.0,00.0,32.9,25.7,16.4,0000.0,0009.81,0004.44,0003.92
2021-10-14 16:04:00,,0823.6,5.00,0.00,23.9,23.0,00.0,32.9,25.7,16.4,0000.0,0009.59,0004.43,0003.91
2021-10-14 16:05:00,,0823.6,5.00,0.00,23.9,23.1,00.0,32.9,25.8,16.2,0000.0,0009.30,0004.45,0003.93
2021-10-14 16:06:00,,0823.5,5.00,0.00,23.9,23.1,00.0,33.0,25.8,16.3,0000.0,0008.37,0004.48,0003.94
2021-10-14 16:07:00,,0823.6,4.99,0.00,23.9,23.1,00.0,33.0,25.8,16.5,0000.0,0008.35,0004.48,0003.94
2021-10-14 16:08:00,,0823.5,5.01,0.00,23.9,23.1,00.0,33.0,25.8,16.2,0000.0,0008.35,0004.47,0003.95
2021-10-14 16:09:00,,0823.5,5.00,0.00,23.9,23.1,00.0,33.0,25.8,16.3,0000.0,0008.21,0004.46,0003.96
2021-10-14 16:10:00,,0823.5,5.00,0.00,23.9,23.2,00.0,33.0,25.9,16.3,0000.0,0008.35,0004.41,0003.95
2021-10-14 16:11:00,,0823.5,5.00,0.00,24.0,23.2,00.0,33.0,25.9,16.2,0000.0,0008.49,0004.43,0003.95
2021-10-14 16:12:00,,0823.6,5.00,0.00,24.0,23.2,00.0,33.0,25.9,16.1,0000.0,0008.42,0004.41,0003.95
2021-10-14 16:13:00,,0823.7,4.99,0.00,24.0,23.2,00.0,33.0,25.9,15.8,0000.0,0008.20,0004.39,0003.94
2021-10-14 16:14:00,,0823.7,5.01,0.00,24.0,23.2,00.0,33.0,25.9,16.0,0000.0,0008.06,0004.39,0003.95
2021-10-14 16:15:00,,0823.7,5.00,0.00,24.0,23.2,00.0,33.0,25.9,16.2,0000.0,0008.54,0004.42,0003.96
2021-10-14 16:16:00,,0823.7,5.00,0.00,24.0,23.2,00.0,33.1,25.9,16.1,0000.0,0009.23,0004.39,0003.96
2021-10-14 16:17:00,,0823.7,5.01,0.00,24.0,23.2,00.0,33.1,25.9,16.1,0000.0,0009.19,0004.38,0003.96
2021-10-14 16:18:00,,0823.7,5.01,0.00,24.0,23.2,00.0,33.1,25.9,16.1,0000.0,0009.20,0004.38,0003.96
2021-10-14 16:19:00,,0823.7,5.00,0.00,24.0,23.2,00.0,33.1,26.0,16.1,0000.0,0009.24,0004.40,0003.96
2021-10-14 16:20:00,,0823.7,5.00,0.00,24.1,23.2,00.0,33.1,26.0,16.2,0000.0,0009.63,0004.39,0003.96
2021-10-14 16:21:00,,0823.7,5.01,0.00,24.1,23.3,00.0,33.1,26.0,16.1,0000.0,0009.30,0004.39,0003.96
2021-10-14 16:22:00,,0823.7,5.00,0.00,24.1,23.3,00.0,33.1,26.0,16.0,0000.0,0009.24,0004.41,0003.97
2021-10-14 16:23:00,,0823.8,5.00,0.00,24.1,23.3,00.0,33.1,26.0,16.0,0000.0,0009.89,0004.42,0003.98
2021-10-14 16:24:00,,0823.7,5.01,0.00,24.1,23.3,00.0,33.1,26.0,16.0,0000.0,0010.22,0004.45,0003.98
2021-10-14 16:25:00,,0823.7,5.00,0.00,24.1,23.4,00.0,33.1,26.0,16.1,0000.0,0010.23,0004.46,0003.99
2021-10-14 16:26:00,,0823.7,5.00,0.00,24.1,23.4,00.0,33.1,26.0,15.9,0000.0,0009.91,0004.44,0004.00
2021-10-14 16:27:00,,0823.8,4.99,0.00,24.2,23.4,00.0,33.2,26.1,16.0,0000.0,0009.01,0004.45,0004.00
2021-10-14 16:28:00,,0823.8,5.01,0.00,24.2,23.4,00.0,33.2,26.1,16.0,0000.0,0009.07,0004.45,0004.01
2021-10-14 16:29:00,,0823.8,5.00,0.00,24.2,23.4,00.0,33.2,26.1,15.9,0000.0,0009.21,0004.48,0004.02
2021-10-14 16:30:00,,0823.7,5.00,0.00,24.2,23.5,00.0,33.2,26.1,15.8,0000.0,0009.25,0004.46,0004.03
2021-10-14 16:31:00,,0823.8,4.99,0.00,24.2,23.5,00.0,33.2,26.1,16.1,0000.0,0009.18,0004.50,0004.05
2021-10-14 16:32:00,,0823.8,5.01,0.00,24.3,23.5,00.0,33.2,26.2,15.9,0000.0,0009.16,0004.52,0004.07
2021-10-14 16:33:00,,0823.8,4.99,0.00,24.3,23.5,00.0,33.2,26.2,15.8,0000.0,0009.62,0004.55,0004.08
2021-10-14 16:34:00,,0823.8,5.01,0.00,24.3,23.6,00.0,33.2,26.2,15.9,0000.0,0009.29,0004.54,0004.08
2021-10-14 16:35:00,,0823.8,4.99,0.00,24.3,23.6,00.0,33.3,26.2,15.9,0000.0,0009.53,0004.52,0004.09
2021-10-14 16:36:00,,0823.8,5.00,0.00,24.3,23.6,00.0,33.3,26.2,16.0,0000.0,0010.34,0004.52,0004.09
2021-10-14 16:37:00,,0823.8,5.00,0.00,24.3,23.6,00.0,33.3,26.2,15.7,0000.0,0011.43,0004.52,0004.08
2021-10-14 16:38:00,,0823.8,5.01,0.00,24.3,23.6,00.0,33.3,26.3,15.4,0000.0,0011.71,0004.51,0004.09
2021-10-14 16:39:00,,0823.8,5.00,0.00,24.3,23.6,00.0,33.3,26.3,15.4,0000.0,0011.77,0004.52,0004.09
2021-10-14 16:40:00,,0823.8,4.99,0.00,24.3,23.6,00.0,33.3,26.3,15.4,0000.0,0012.53,0004.53,0004.09
2021-10-14 16:41:00,,0823.8,5.02,0.00,24.4,23.6,00.0,33.3,26.3,15.4,0000.0,0012.51,0004.52,0004.08
2021-10-14 16:42:00,,0823.8,4.99,0.00,24.4,23.7,00.0,33.4,26.3,15.5,0000.0,0012.39,0004.51,0004.08
2021-10-14 16:43:00,,0823.8,5.00,0.00,24.4,23.7,00.0,33.4,26.3,15.5,0000.0,0013.48,0004.52,0004.09
2021-10-14 16:44:00,,0823.8,5.01,0.00,24.4,23.6,00.0,33.4,26.4,15.5,0000.0,0013.85,0004.48,0004.09
2021-10-14 16:45:00,,0823.8,5.00,0.00,24.4,23.6,00.0,33.4,26.4,15.4,0000.0,0014.11,0004.51,0004.11
2021-10-14 16:46:00,,0823.8,5.00,0.00,24.4,23.6,00.0,33.4,26.3,15.3,0000.0,0013.45,0004.51,0004.11
2021-10-14 16:47:00,,0823.8,5.00,0.00,24.4,23.6,00.0,33.4,26.3,15.3,0000.0,0012.77,0004.55,0004.12
2021-10-14 16:48:00,,0823.8,5.00,0.00,24.4,23.7,00.0,33.4,26.3,15.3,0000.0,0011.95,0004.58,0004.14
2021-10-14 16:49:00,,0823.7,5.02,0.00,24.4,23.7,00.0,33.5,26.3,15.3,0000.0,0012.24,0004.65,0004.15
2021-10-14 16:50:00,,0823.8,4.99,0.00,24.5,23.7,00.0,33.5,26.4,15.5,0000.0,0012.63,0004.64,0004.16
2021-10-14 16:51:00,,0823.8,5.01,0.00,24.5,23.7,00.0,33.5,26.4,15.4,0000.0,0012.16,0004.64,0004.17
2021-10-14 16:52:00,,0823.8,4.99,0.00,24.5,23.7,00.0,33.5,26.4,15.3,0000.0,0013.05,0004.65,0004.19
2021-10-14 16:53:00,,0823.8,4.99,0.00,24.5,23.7,00.0,33.5,26.4,15.2,0000.0,0013.18,0004.66,0004.20
2021-10-14 16:54:00,,0823.8,5.01,0.00,24.5,23.7,00.0,33.5,26.4,15.4,0000.0,0011.72,0004.67,0004.20
2021-10-14 16:55:00,,0823.8,5.00,0.00,24.5,23.7,00.0,33.5,26.4,15.4,0000.0,0010.86,0004.67,0004.22
2021-10-14 16:56:00,,0823.8,4.99,0.00,24.5,23.7,00.0,33.5,26.4,15.2,0000.0,0010.56,0004.69,0004.23
2021-10-14 16:57:00,,0823.8,5.00,0.00,24.5,23.7,00.0,33.5,26.4,15.4,0000.0,0010.71,0004.71,0004.26
2021-10-14 16:58:00,,0823.7,5.00,0.00,24.5,23.7,00.0,33.5,26.4,15.4,0000.0,0010.62,0004.75,0004.27
2021-10-14 16:59:00,,0823.7,5.01,0.00,24.5,23.7,00.0,33.5,26.4,15.4,0000.0,0010.58,0004.77,0004.28
